Location: Bats
(43.6587°N, 0.4584°W)
Time: 04:15:57
(UTC+00:00)

Meteor 1-16 Rocket - Visible Passes

Search period start: 21 April 2026 00:00
Search period end: 01 May 2026 00:00
Orbit: 789 x 905 km, 81.2° (Epoch: 20 April)

Date Brightness Start Highest point End Pass type
(mag) Time Alt. Az. Time Alt. Az. Time Alt. Az.
21 Apr 6.8 19:57:04 10° WSW 20:01:50 25° WNW 20:06:33 10° NNW visible
22 Apr 6.7 19:43:42 10° SW 19:48:39 27° WNW 19:53:32 10° NNW visible
23 Apr 6.6 19:30:23 10° SW 19:35:28 30° WNW 19:40:30 10° N visible
24 Apr 6.3 04:24:39 10° N 04:29:31 31° ENE 04:34:15 10° SE visible
24 Apr 6.4 19:17:04 10° SW 19:22:17 33° WNW 19:27:27 10° N visible
25 Apr 6.5 04:11:38 10° N 04:16:19 28° ENE 04:20:53 10° SE visible
26 Apr 6.6 03:58:36 10° NNE 04:03:07 26° ENE 04:07:31 10° SE visible
27 Apr 6.7 03:45:36 10° NNE 03:49:54 23° ENE 03:54:07 10° ESE visible
28 Apr 6.9 03:32:38 10° NNE 03:36:42 21° ENE 03:40:42 10° ESE visible
29 Apr 7.0 03:19:40 10° NNE 03:23:29 19° ENE 03:27:14 10° ESE visible
30 Apr 7.0 03:06:44 10° NNE 03:10:16 17° ENE 03:13:44 10° ESE visible
